NOAA 16 DEB

Satellite information

Favourite Embed

Satellite Type and Status

DEBRISIN ORBIT

Key statistics

Satellite NOAA 16 DEB at a glance.

Uptime

9171

Days in orbit

Revolutions

≈ 14.2

Per day

Orbit

SSO

Sun Synchronous Orbit

Inclination

98.8

Latest

Satellite identification and parameters

Extended collection of information and parameters for NOAA 16 DEB.

Object identification

Identified? True

Debris? True

Object name: NOAA 16 DEB

International designator: 2000-055GJ

Object number (NORAD): 41282

Object ID (CCSDS): 41282

Country: UNITED STATES OF AMERICA (US)

Current information (Y/N): Y

RCS size: SMALL

Orbital parameters

Period: 101.721 minutes

Inclination: 98.7845 deg

SMA: 7218.299 km

Apoapsis: 882.663 km

Periapsis: 797.666 km

RAAN: 308.1243 deg

Eccentricy: 0.00588765

Argument of periapsis: 271.2857 deg

Mean anomaly: 88.1572 deg

Mean motion: 14.15632189 rev/day

Mean motion (dot): 0.0000686 rev/day2

B* drag term: 0.0034634392 1/REarth

Two-line elements (TLE)

Creation date: Oct. 30, 2025, 10:34 a.m.

Reference frame: TEME

Reference center: EARTH

Epoch: Oct. 30, 2025, 5:40 a.m. UTC

TLE line 0: 0 NOAA 16 DEB

TLE line 1: 1 41282U 00055GJ 25303.23612245 .00006860 00000-0 34634-2 0 9997

TLE line 2: 2 41282 98.7845 308.1243 0058876 271.2857 88.1572 14.15632189503994

Live tracking on map

Real-time ground track for satellite NOAA 16 DEB.

In-orbit conjunctions

A list of the most updated potential collisions computed for object NOAA 16 DEB.

Target Orbit TCA Probability of collision Miss distance Type
SL-16 R/B LEO 2025-08-04 10:02:48 0.0001524131 422.0 (m) ROCKET BODY
CZ-6A DEB SSO 2025-01-09 10:39:49 0.0001915071 89.0 (m) DEBRIS

Associated space launch

The NOAA K, L and M POES satellites begin the fifth generation of improved environmental monitoring in support of NOAA missions. The instrument payload has significant improvements and additions/deletions. The instrument changes have effected the spacecraft subsystems and data formats.

NOAA 16 DEB was lifted into orbit during the mission ‘Titan II SLV | NOAA 16’, on board a Titan II SLV space rocket.

The launch took place on Sept. 21, 2000, 10:22 a.m. from Space Launch Complex 4W.

For more information about the launch, click the button.

Launch to space Titan II SLV | NOAA 16
Titan II SLV | NOAA 16

Agency: N/A

Status: Launch Successful

Launch date: Sept. 21, 2000, 10:22 a.m. UTC

Rocket: Titan II SLV

Launch pad: Space Launch Complex 4W

Location: Vandenberg SFB, CA, USA

...

Latest news about this satellite

There are no fresh news available about this satellite. Check back as we update our databases every day.


Newsletter sign-up

Weekly statistics, charts and insights to help you stay on top of the space industry.